Погода в Гирокастре

Албания     40°04′48″N   20°08′20″E
темп.,
°C
ветер,
м/с
пор.,
м/с
влажн.,
%
обл.,
%
осадки,
мм/ч
давл.,
гПа
погр.,
м
24 января, вс
вс2401:00+4ююз129149 4.6 100922
04:00+5ююз228865 0.5 101035
07:00+5юв339071 0.6 101073
10:00+7ю349394 0.6 1010278
13:00+8ю378497 2.5 1007951
16:00+6ю4797100 5.9 1007546
19:00+7ю41299100 14.3 10051100
22:00+8ююз71999100 16.3 10031382
25 января, пн
пн2501:00+8зюз61194100 36.0 1001926
04:00+6зюз3492100 3.5 1004194
07:00+5з229666 4.9 100537
10:00+6с227768 0.7 1009565
13:00+8юз346558 0.9 10091185
16:00+7ююз237592 0.1 1010598
19:00+6ююз239080 0.6 1009198
22:00+6ю3598100 4.4 1009296
26 января, вт
вт2601:00+6ююз3698100 10.0 1007544
04:00+7ююз3699100 14.0 1004451
07:00+7ююз2399100 27.1 1004180
10:00+7з1198100 5.9 1003111
13:00+6с5795100 10.6 1001347
16:00+3ссз6993100 3.6 1001587
19:00+2сз249483 3.6 1002114
22:00+1с228926 0.0 100446
27 января, ср
ср2701:00−1с468463 1.5 1005326
04:00−2с588499 0.4 1007494
07:00−2с368399 0.6 1009352
10:000с575834 0.0 1011817
13:00+2с585617 0.0 10121048
16:00+1с35680 0.0 1013739
19:00−2с23780 0.0 101578
22:00−1с22720 0.0 101674
28 января, чт
чт2801:00−1с23740 0.0 101768
04:00−1с23670 0.0 101777
07:00−2ссв22661 0.0 101850
10:00+2с23510 0.0 1019542
13:00+4ссз24450 0.0 10181590
16:00+3юз126592 0.0 101765
19:000ююв118056 0.0 101722
22:00+1вюв227432 0.0 101722